Salina, KS

3:12 AM CDT on July 24, 2017 (GMT -0500)
Salina Municipal

Weather History for KSLN - January, 2013

Change the Weather History Date:

Sunday, January 13, 2013

  Actual Average Record
Temperature  
Mean Temperature 20 °F 31 °F  
Max Temperature 28 °F 41 °F 73 °F (1928)
Min Temperature 12 °F 20 °F -17 °F (1916)
Degree Days  
Heating Degree Days 45 34  
Month to date heating degree days 445 442  
Since 1 July heating degree days 2222 2406  
Cooling Degree Days 0 0  
Month to date cooling degree days 0 0  
Year to date cooling degree days 0 0  
Moisture  
Dew Point 6 °F    
Average Humidity 56    
Maximum Humidity 73    
Minimum Humidity 39    
Precipitation  
Precipitation 0.00 in 0.01 in 0.71 in (1979)
Month to date precipitation 0.81 0.20  
Year to date precipitation 0.81 0.20  
Sea Level Pressure  
Sea Level Pressure 30.32 in    
Wind  
Wind Speed 11 mph (NW)    
Max Wind Speed 22 mph    
Max Gust Speed 24 mph    
Visibility 10 miles    
Events Snow    
T = Trace of Precipitation, MM = Missing Value Source: NWS Daily Summary

Daily Weather History Graph

Daily Weather History Graph

Search for Another Location

Airport or City:

Trip Planner

Search our weather history database for the weather conditions in past years. The results will help you decide how hot, cold, wet, or windy it might be!

Date:

Astronomy

Jan. 13, 2013 Rise Set
Actual Time 7:47 AM CST 5:31 PM CST
Civil Twilight 7:18 AM CST 6:00 PM CST
Nautical Twilight 6:45 AM CST 6:33 PM CST
Astronomical Twilight 6:13 AM CST 7:05 PM CST
Moon 8:49 AM CST (1/13) 8:09 PM CST (1/13)
Length of Visible Light 10h 41m
Length of Day
9h 43m
Waxing Crescent, 5% of the Moon is Illuminated
Jan 13
Waxing Crescent
Jan 18
First Quarter
Jan 26
Full
Feb 3
Last Quarter
Feb 10
New

Hourly Weather History & Observations

Time (CST) Temp. Windchill Dew Point Humidity Pressure Visibility Wind Dir Wind Speed Gust Speed Precip Events Conditions
12:53 AM 17.1 °F 0.6 °F 5.0 °F 59% 30.22 in 9.0 mi NNW 19.6 mph - 0.00 in Snow Light Snow
1:53 AM 16.0 °F -0.9 °F 5.0 °F 62% 30.19 in 10.0 mi NNW 19.6 mph - 0.00 in Snow Light Snow
2:53 AM 15.1 °F -0.1 °F 6.1 °F 68% 30.25 in 10.0 mi NW 15.0 mph - 0.00 in   Clear
3:53 AM 14.0 °F -2.0 °F 5.0 °F 67% 30.26 in 9.0 mi NNW 16.1 mph - 0.00 in   Overcast
4:53 AM 12.9 °F -1.6 °F 5.0 °F 71% 30.25 in 10.0 mi NNW 12.7 mph - N/A   Clear
5:53 AM 12.9 °F -0.9 °F 5.0 °F 71% 30.27 in 10.0 mi NW 11.5 mph - N/A   Clear
6:53 AM 12.0 °F -2.0 °F 5.0 °F 73% 30.30 in 10.0 mi NW 11.5 mph - N/A   Clear
7:53 AM 12.0 °F -1.3 °F 5.0 °F 73% 30.32 in 10.0 mi NW 10.4 mph - N/A   Clear
8:53 AM 14.0 °F 0.5 °F 3.9 °F 64% 30.35 in 10.0 mi NW 11.5 mph - N/A   Clear
9:53 AM 17.1 °F 3.0 °F 3.0 °F 54% 30.37 in 10.0 mi NNW 13.8 mph - N/A   Clear
10:53 AM 19.0 °F 7.5 °F 3.0 °F 50% 30.38 in 10.0 mi NNW 10.4 mph - N/A   Clear
11:53 AM 23.0 °F 13.1 °F 3.9 °F 44% 30.35 in 10.0 mi NNW 9.2 mph 18.4 mph N/A   Clear
12:53 PM 25.0 °F 14.2 °F 6.1 °F 45% 30.31 in 10.0 mi NNW 11.5 mph - N/A   Clear
1:53 PM 27.0 °F 15.6 °F 6.1 °F 41% 30.30 in 10.0 mi NW 13.8 mph - N/A   Clear
2:53 PM 28.0 °F 18.1 °F 7.0 °F 41% 30.30 in 10.0 mi NW 11.5 mph 20.7 mph N/A   Clear
3:53 PM 28.0 °F 18.1 °F 7.0 °F 41% 30.33 in 10.0 mi NW 11.5 mph - N/A   Clear
4:53 PM 27.0 °F 16.7 °F 8.1 °F 45% 30.34 in 10.0 mi NNW 11.5 mph - N/A   Clear
5:53 PM 23.0 °F 13.1 °F 9.0 °F 55% 30.35 in 10.0 mi NNW 9.2 mph - N/A   Clear
6:53 PM 21.0 °F 13.4 °F 10.0 °F 63% 30.36 in 10.0 mi NNW 5.8 mph - N/A   Clear
7:53 PM 19.0 °F 12.3 °F 8.1 °F 62% 30.38 in 10.0 mi NW 4.6 mph - N/A   Clear
8:53 PM 18.0 °F 11.1 °F 9.0 °F 68% 30.40 in 10.0 mi NW 4.6 mph - N/A   Clear
9:53 PM 16.0 °F 8.8 °F 8.1 °F 71% 30.41 in 10.0 mi NW 4.6 mph - N/A   Clear
10:53 PM 15.1 °F 9.4 °F 7.0 °F 70% 30.42 in 10.0 mi NW 3.5 mph - N/A   Clear
11:53 PM 15.8 °F - 8.6 °F 73% 30.36 in 10.0 mi Calm Calm - N/A   Clear